GEC8265 EDDF-SUMU

Flight info

Callsign GEC8265
Flight time N/A
Altitude 29000
Route ANEKI2L ANEKI Y163 HERBI Y164 OLBEN DCT ONNOF DCT BELUS/N0484F300 DCT LSE/N0483F290 UY305 ESIDA DCT GAI/N0484F310 DCT PERDU DCT KONKE Z245 CJN N10 SVL N857 KORNO UN857 TERTO N857 DEREV/N0487F320 N857 GUNET UN857 TEKSO/N0484F340 UN857 SIDOP/N0479F380 UN857 MIMOL UM792 TELAK
Aircraft B77L/H-SDE2E3FGHIJ1J3J4J5M1P2RWXYZ/LB1D1

Departure

Time N/A
Airport Frankfurt Main Airport (EDDF)

Arrival

Time 2026-05-09 06:24
Airport Carrasco General Cesáreo L. Berisso International Airport (SUMU)
Time Latitude Longitude Altitude Speed Heading
2026-05-09 05:46 -31.68304 -53.33746 37985 ft 460 kts 239°
2026-05-09 05:46 -31.72565 -53.39398 37535 ft 461 kts 232°
2026-05-09 05:47 -31.74680 -53.42213 37860 ft 458 kts 232°
2026-05-09 05:47 -31.76787 -53.45003 37845 ft 456 kts 238°
2026-05-09 05:47 -31.80995 -53.50593 37807 ft 457 kts 238°
2026-05-09 05:48 -31.85211 -53.56213 37808 ft 459 kts 238°
2026-05-09 05:48 -31.89442 -53.61859 37803 ft 460 kts 238°
2026-05-09 05:49 -31.93676 -53.67515 37814 ft 461 kts 238°
2026-05-09 05:49 -31.97917 -53.73189 37804 ft 462 kts 238°
2026-05-09 05:50 -32.02166 -53.78884 37806 ft 463 kts 238°
2026-05-09 05:50 -32.06392 -53.84554 37804 ft 463 kts 238°
2026-05-09 05:51 -32.10644 -53.90264 37795 ft 463 kts 238°
2026-05-09 05:51 -32.14892 -53.95975 37785 ft 463 kts 238°
2026-05-09 05:52 -32.19127 -54.01681 37791 ft 463 kts 238°
2026-05-09 05:52 -32.23372 -54.07411 37763 ft 462 kts 238°
2026-05-09 05:53 -32.27605 -54.13131 37751 ft 462 kts 238°
2026-05-09 05:53 -32.31862 -54.18833 37788 ft 465 kts 234°
2026-05-09 05:54 -32.36842 -54.23917 37802 ft 479 kts 225°
2026-05-09 05:54 -32.42568 -54.28160 37797 ft 488 kts 219°
2026-05-09 05:55 -32.48441 -54.32200 37797 ft 488 kts 219°
2026-05-09 05:55 -32.54302 -54.36260 37781 ft 488 kts 219°
2026-05-09 05:56 -32.60147 -54.40364 37790 ft 488 kts 219°
2026-05-09 05:56 -32.65982 -54.44488 37782 ft 489 kts 219°
2026-05-09 05:57 -32.71826 -54.48624 37774 ft 490 kts 219°
2026-05-09 05:57 -32.77644 -54.52746 37770 ft 490 kts 219°
2026-05-09 05:58 -32.83508 -54.56904 37772 ft 491 kts 219°
2026-05-09 05:58 -32.89372 -54.61069 37792 ft 491 kts 219°
2026-05-09 05:59 -32.95254 -54.65255 37768 ft 492 kts 219°
2026-05-09 05:59 -33.01136 -54.69446 37763 ft 493 kts 219°
2026-05-09 06:00 -33.07027 -54.73651 37510 ft 496 kts 219°
2026-05-09 06:00 -33.10010 -54.75789 36740 ft 502 kts 219°
2026-05-09 06:00 -33.13001 -54.77927 35984 ft 501 kts 219°
2026-05-09 06:01 -33.15990 -54.80063 35158 ft 500 kts 219°
2026-05-09 06:01 -33.18975 -54.82200 34296 ft 501 kts 219°
2026-05-09 06:01 -33.21963 -54.84341 33440 ft 501 kts 219°
2026-05-09 06:01 -33.24932 -54.86467 32742 ft 494 kts 219°
2026-05-09 06:02 -33.27867 -54.88569 32096 ft 488 kts 219°
2026-05-09 06:02 -33.30759 -54.90644 31481 ft 482 kts 219°
2026-05-09 06:02 -33.33617 -54.92698 30900 ft 476 kts 219°
2026-05-09 06:02 -33.36436 -54.94728 30315 ft 471 kts 219°
2026-05-09 06:03 -33.39225 -54.96739 29724 ft 466 kts 219°
2026-05-09 06:03 -33.41993 -54.98738 29025 ft 462 kts 219°
2026-05-09 06:03 -33.44725 -55.00711 28408 ft 456 kts 219°
2026-05-09 06:03 -33.46518 -55.02008 28041 ft 452 kts 218°
2026-05-09 06:04 -33.49196 -55.03943 27432 ft 448 kts 218°
2026-05-09 06:04 -33.51851 -55.05859 26851 ft 443 kts 217°
2026-05-09 06:04 -33.54478 -55.07753 26282 ft 438 kts 217°
2026-05-09 06:04 -33.57078 -55.09630 25706 ft 434 kts 217°
2026-05-09 06:05 -33.59651 -55.11491 25174 ft 430 kts 217°
2026-05-09 06:05 -33.62202 -55.13338 24629 ft 427 kts 217°
2026-05-09 06:05 -33.64736 -55.15174 24075 ft 423 kts 217°
2026-05-09 06:05 -33.67247 -55.16996 23535 ft 421 kts 217°
2026-05-09 06:06 -33.69744 -55.18808 22918 ft 418 kts 217°
2026-05-09 06:06 -33.72223 -55.20608 22334 ft 414 kts 217°
2026-05-09 06:06 -33.74680 -55.22392 21786 ft 410 kts 217°
2026-05-09 06:06 -33.77106 -55.24155 21251 ft 405 kts 217°
2026-05-09 06:07 -33.79508 -55.25901 20718 ft 401 kts 217°
2026-05-09 06:07 -33.81854 -55.27611 20219 ft 398 kts 217°
2026-05-09 06:07 -33.84240 -55.29350 19686 ft 394 kts 217°
2026-05-09 06:07 -33.86540 -55.31027 19184 ft 391 kts 217°
2026-05-09 06:08 -33.88855 -55.32716 18664 ft 388 kts 217°
2026-05-09 06:08 -33.91156 -55.34395 18170 ft 385 kts 217°
2026-05-09 06:08 -33.93442 -55.36067 17586 ft 383 kts 217°
2026-05-09 06:08 -33.95709 -55.37726 17031 ft 380 kts 217°
2026-05-09 06:09 -33.97961 -55.39372 16508 ft 377 kts 217°
2026-05-09 06:09 -34.00190 -55.41003 15995 ft 373 kts 216°
2026-05-09 06:09 -34.02401 -55.42624 15494 ft 370 kts 216°
2026-05-09 06:09 -34.04596 -55.44234 15010 ft 368 kts 215°
2026-05-09 06:10 -34.06781 -55.45836 14511 ft 366 kts 214°
2026-05-09 06:10 -34.08948 -55.47426 14011 ft 364 kts 214°
2026-05-09 06:10 -34.11106 -55.49008 13510 ft 362 kts 214°
2026-05-09 06:10 -34.13248 -55.50581 12963 ft 359 kts 214°
2026-05-09 06:11 -34.15370 -55.52140 12446 ft 356 kts 214°
2026-05-09 06:11 -34.17475 -55.53689 11942 ft 353 kts 214°
2026-05-09 06:11 -34.19564 -55.55226 11451 ft 350 kts 214°
2026-05-09 06:11 -34.21633 -55.56750 10970 ft 347 kts 214°
2026-05-09 06:12 -34.23683 -55.58261 10493 ft 345 kts 215°
2026-05-09 06:12 -34.25717 -55.59759 10241 ft 337 kts 215°
2026-05-09 06:12 -34.27687 -55.61210 10087 ft 326 kts 215°
2026-05-09 06:12 -34.29590 -55.62613 9945 ft 316 kts 215°
2026-05-09 06:13 -34.31434 -55.63974 9818 ft 306 kts 215°
2026-05-09 06:13 -34.33225 -55.65295 9692 ft 297 kts 213°
2026-05-09 06:13 -34.35030 -55.66408 9505 ft 288 kts 203°
2026-05-09 06:13 -34.36965 -55.66975 9254 ft 283 kts 198°
2026-05-09 06:14 -34.38854 -55.67460 8975 ft 275 kts 198°
2026-05-09 06:14 -34.40732 -55.67962 8432 ft 277 kts 199°
2026-05-09 06:14 -34.42601 -55.68470 8082 ft 273 kts 199°
2026-05-09 06:14 -34.44435 -55.68974 7754 ft 268 kts 199°
2026-05-09 06:15 -34.46237 -55.69474 7443 ft 263 kts 199°
2026-05-09 06:15 -34.48006 -55.69968 7147 ft 259 kts 200°
2026-05-09 06:15 -34.49744 -55.70457 6860 ft 254 kts 200°
2026-05-09 06:15 -34.51446 -55.70937 6558 ft 249 kts 200°
2026-05-09 06:16 -34.52994 -55.71680 6112 ft 234 kts 218°
2026-05-09 06:16 -34.54308 -55.72790 5798 ft 228 kts 223°
2026-05-09 06:16 -34.55565 -55.73927 5510 ft 224 kts 223°
2026-05-09 06:16 -34.56824 -55.75064 5253 ft 228 kts 223°
2026-05-09 06:17 -34.58116 -55.76217 4999 ft 233 kts 223°
2026-05-09 06:17 -34.59434 -55.77379 4726 ft 234 kts 222°
2026-05-09 06:17 -34.60743 -55.78519 4434 ft 229 kts 222°
2026-05-09 06:17 -34.62037 -55.79640 4154 ft 228 kts 222°
2026-05-09 06:18 -34.63334 -55.80762 3900 ft 230 kts 222°
2026-05-09 06:18 -34.64630 -55.81877 3631 ft 226 kts 222°
2026-05-09 06:18 -34.65891 -55.82959 3364 ft 224 kts 221°
2026-05-09 06:18 -34.67158 -55.84046 3235 ft 221 kts 222°
2026-05-09 06:19 -34.68383 -55.85093 3119 ft 209 kts 222°
2026-05-09 06:19 -34.69537 -55.86079 3051 ft 195 kts 223°
2026-05-09 06:19 -34.70603 -55.86990 3029 ft 180 kts 224°
2026-05-09 06:19 -34.71620 -55.87865 3034 ft 181 kts 224°
2026-05-09 06:20 -34.72667 -55.88769 2857 ft 188 kts 224°
2026-05-09 06:20 -34.73737 -55.89690 2623 ft 187 kts 224°
2026-05-09 06:20 -34.74778 -55.90579 2367 ft 180 kts 224°
2026-05-09 06:20 -34.75793 -55.91450 2152 ft 179 kts 224°
2026-05-09 06:21 -34.76816 -55.92330 1954 ft 179 kts 223°
2026-05-09 06:21 -34.77712 -55.93263 1792 ft 157 kts 235°
2026-05-09 06:21 -34.78386 -55.94183 1711 ft 134 kts 237°
2026-05-09 06:21 -34.78923 -55.95011 1491 ft 115 kts 241°
2026-05-09 06:22 -34.79401 -55.95802 1373 ft 117 kts 242°
2026-05-09 06:22 -34.79891 -55.96629 1269 ft 123 kts 242°
2026-05-09 06:22 -34.80410 -55.97481 1035 ft 128 kts 240°
2026-05-09 06:22 -34.80949 -55.98369 733 ft 132 kts 238°
2026-05-09 06:23 -34.81507 -55.99264 620 ft 135 kts 238°
2026-05-09 06:23 -34.82084 -56.00205 382 ft 142 kts 237°
2026-05-09 06:23 -34.82671 -56.01151 214 ft 142 kts 240°
2026-05-09 06:23 -34.83243 -56.02088 100 ft 127 kts 242°
2026-05-09 06:24 -34.83686 -56.02833 86 ft 64 kts 230°
2026-05-09 06:24 -34.83825 -56.03045 67 ft 20 kts 224°
2026-05-09 06:24 -34.83933 -56.03076 71 ft 15 kts 174°
2026-05-09 06:24 -34.84006 -56.03007 64 ft 14 kts 107°
2026-05-09 06:25 -34.84010 -56.02887 66 ft 14 kts 91°
2026-05-09 06:25 -34.84012 -56.02793 75 ft 8 kts 91°
2026-05-09 06:25 -34.83998 -56.02734 72 ft 7 kts 58°
2026-05-09 06:25 -34.83970 -56.02679 68 ft 10 kts 59°
2026-05-09 06:26 -34.83944 -56.02532 80 ft 20 kts 92°
2026-05-09 06:26 -34.83948 -56.02415 82 ft 11 kts 89°
2026-05-09 06:26 -34.83929 -56.02376 88 ft 2 kts 36°
2026-05-09 06:26 -34.83928 -56.02375 88 ft 1 kts 35°
2026-05-09 06:27 -34.83889 -56.02371 88 ft 6 kts 353°
2026-05-09 06:27 -34.83876 -56.02373 87 ft 0 kts 355°